Time,TemperatureF,DewpointF,PressureIn,WindDirection,WindDirectionDegrees,WindSpeedMPH,WindSpeedGustMPH,Humidity,HourlyPrecipIn,Conditions,Clouds,dailyrainin,SoftwareType,DateUTC
2013-12-04 00:00:00,4.5,0.7,29.92,NW,326,12.0,13.0,84,0.00,CLR,CLR,0.00,WeatherDisplay:10.34,2013-12-04 07:00:00,
2013-12-04 00:05:00,4.5,0.7,29.92,NW,309,11.0,13.0,84,0.00,CLR,CLR,0.00,WeatherDisplay:10.34,2013-12-04 07:05:00,
2013-12-04 00:10:00,4.5,0.7,29.92,WNW,287,11.0,14.0,84,0.00,CLR,CLR,0.00,WeatherDisplay:10.34,2013-12-04 07:10:00,
2013-12-04 00:15:00,4.5,0.7,29.92,NW,311,13.0,14.0,84,0.00,CLR,CLR,0.00,WeatherDisplay:10.34,2013-12-04 07:15:00,
2013-12-04 00:20:00,4.5,0.7,29.91,NNW,333,13.0,14.0,84,0.00,CLR,CLR,0.00,WeatherDisplay:10.34,2013-12-04 07:20:00,
2013-12-04 00:25:00,4.5,0.7,29.91,NNW,344,11.0,12.0,84,0.00,CLR,CLR,0.00,WeatherDisplay:10.34,2013-12-04 07:25:00,
2013-12-04 00:31:00,4.5,0.7,29.91,NW,314,10.0,16.0,84,0.00,CLR,CLR,0.00,WeatherDisplay:10.34,2013-12-04 07:31:00,
2013-12-04 00:36:00,4.4,0.6,29.91,WNW,284,14.0,14.0,84,0.00,CLR,CLR,0.00,WeatherDisplay:10.34,2013-12-04 07:36:00,
2013-12-04 00:41:00,4.3,0.5,29.91,NW,321,16.0,21.0,84,0.00,CLR,CLR,0.00,WeatherDisplay:10.34,2013-12-04 07:41:00,
2013-12-04 00:46:00,4.1,0.3,29.91,WNW,296,9.0,9.0,84,0.00,CLR,CLR,0.00,WeatherDisplay:10.34,2013-12-04 07:46:00,
2013-12-04 00:51:00,4.0,0.2,29.92,NW,323,11.0,14.0,84,0.00,CLR,CLR,0.00,WeatherDisplay:10.34,2013-12-04 07:51:00,
2013-12-04 00:56:00,3.9,0.1,29.92,WNW,298,10.0,15.0,84,0.00,CLR,CLR,0.00,WeatherDisplay:10.34,2013-12-04 07:56:00,
2013-12-04 01:01:00,3.9,0.1,29.92,NNW,346,13.0,15.0,84,0.00,CLR,CLR,0.00,WeatherDisplay:10.34,2013-12-04 08:01:00,
2013-12-04 01:07:00,3.8,0.0,29.92,NW,307,12.0,15.0,84,0.00,CLR,CLR,0.00,WeatherDisplay:10.34,2013-12-04 08:07:00,
2013-12-04 01:12:00,3.8,0.0,29.92,NW,322,11.0,14.0,84,0.00,CLR,CLR,0.00,WeatherDisplay:10.34,2013-12-04 08:12:00,
2013-12-04 01:17:00,3.7,-0.1,29.92,NW,308,13.0,15.0,84,0.00,CLR,CLR,0.00,WeatherDisplay:10.34,2013-12-04 08:17:00,
2013-12-04 01:22:00,3.7,-0.1,29.92,NNW,327,11.0,14.0,84,0.00,CLR,CLR,0.00,WeatherDisplay:10.34,2013-12-04 08:22:00,
2013-12-04 01:28:00,3.7,-0.1,29.92,WNW,284,15.0,15.0,84,0.00,CLR,CLR,0.00,WeatherDisplay:10.34,2013-12-04 08:28:00,
2013-12-04 01:33:00,3.7,-0.1,29.93,NW,309,9.0,10.0,84,0.00,CLR,CLR,0.00,WeatherDisplay:10.34,2013-12-04 08:33:00,
2013-12-04 01:38:00,3.7,-0.1,29.93,NNW,328,7.0,13.0,84,0.00,CLR,CLR,0.00,WeatherDisplay:10.34,2013-12-04 08:38:00,
2013-12-04 01:43:00,3.6,-0.2,29.93,NW,317,10.0,10.0,84,0.00,CLR,CLR,0.00,WeatherDisplay:10.34,2013-12-04 08:43:00,
2013-12-04 01:48:00,3.6,-0.2,29.93,NW,306,12.0,14.0,84,0.00,CLR,CLR,0.00,WeatherDisplay:10.34,2013-12-04 08:48:00,
2013-12-04 01:53:00,3.6,-0.2,29.93,WNW,284,8.0,9.0,84,0.00,CLR,CLR,0.00,WeatherDisplay:10.34,2013-12-04 08:53:00,
2013-12-04 01:58:00,3.6,-0.2,29.93,WNW,296,8.0,12.0,84,0.00,CLR,CLR,0.00,WeatherDisplay:10.34,2013-12-04 08:58:00,
2013-12-04 02:03:00,3.6,-0.4,29.93,WNW,287,12.0,15.0,83,0.00,CLR,CLR,0.00,WeatherDisplay:10.34,2013-12-04 09:03:00,
2013-12-04 02:08:00,3.5,-0.5,29.93,NW,326,11.0,15.0,83,0.00,CLR,CLR,0.00,WeatherDisplay:10.34,2013-12-04 09:08:00,
2013-12-04 02:13:00,3.4,-0.6,29.92,NW,309,12.0,13.0,83,0.00,CLR,CLR,0.00,WeatherDisplay:10.34,2013-12-04 09:13:00,
2013-12-04 02:18:00,3.3,-0.7,29.92,NNW,336,6.0,6.0,83,0.00,CLR,CLR,0.00,WeatherDisplay:10.34,2013-12-04 09:18:00,
2013-12-04 02:23:00,3.2,-0.8,29.92,NNW,341,12.0,15.0,83,0.00,CLR,CLR,0.00,WeatherDisplay:10.34,2013-12-04 09:23:00,
2013-12-04 02:28:00,3.1,-0.9,29.92,NW,317,10.0,10.0,83,0.00,CLR,CLR,0.00,WeatherDisplay:10.34,2013-12-04 09:28:00,
2013-12-04 02:33:00,2.9,-1.1,29.93,North,351,10.0,14.0,83,0.00,CLR,CLR,0.00,WeatherDisplay:10.34,2013-12-04 09:33:00,
2013-12-04 02:38:00,2.8,-1.2,29.93,NW,322,8.0,13.0,83,0.00,CLR,CLR,0.00,WeatherDisplay:10.34,2013-12-04 09:38:00,
2013-12-04 02:43:00,2.8,-1.2,29.93,NW,326,8.0,9.0,83,0.00,CLR,CLR,0.00,WeatherDisplay:10.34,2013-12-04 09:43:00,
2013-12-04 02:48:00,2.7,-1.3,29.93,NW,314,10.0,13.0,83,0.00,CLR,CLR,0.00,WeatherDisplay:10.34,2013-12-04 09:48:00,
2013-12-04 02:53:00,2.6,-1.4,29.93,NW,305,8.0,12.0,83,0.00,CLR,CLR,0.00,WeatherDisplay:10.34,2013-12-04 09:53:00,
2013-12-04 02:58:00,2.6,-1.4,29.93,WNW,302,6.0,10.0,83,0.00,CLR,CLR,0.00,WeatherDisplay:10.34,2013-12-04 09:58:00,
2013-12-04 03:03:00,2.5,-1.5,29.93,NW,325,10.0,12.0,83,0.00,CLR,CLR,0.00,WeatherDisplay:10.34,2013-12-04 10:03:00,
2013-12-04 03:08:00,2.4,-1.6,29.92,NNW,339,9.0,9.0,83,0.00,CLR,CLR,0.00,WeatherDisplay:10.34,2013-12-04 10:08:00,
2013-12-04 03:13:00,2.4,-1.6,29.92,West,281,7.0,7.0,83,0.00,CLR,CLR,0.00,WeatherDisplay:10.34,2013-12-04 10:13:00,
2013-12-04 03:18:00,2.4,-1.6,29.92,WNW,298,7.0,8.0,83,0.00,CLR,CLR,0.00,WeatherDisplay:10.34,2013-12-04 10:18:00,
2013-12-04 03:23:00,2.5,-1.5,29.92,NW,306,5.0,5.0,83,0.00,CLR,CLR,0.00,WeatherDisplay:10.34,2013-12-04 10:23:00,
2013-12-04 03:28:00,2.5,-1.5,29.92,NNW,331,8.0,9.0,83,0.00,CLR,CLR,0.00,WeatherDisplay:10.34,2013-12-04 10:28:00,
2013-12-04 03:33:00,2.6,-1.4,29.92,NW,316,6.0,9.0,83,0.00,CLR,CLR,0.00,WeatherDisplay:10.34,2013-12-04 10:33:00,
2013-12-04 03:38:00,2.6,-1.4,29.92,NW,321,11.0,14.0,83,0.00,CLR,CLR,0.00,WeatherDisplay:10.34,2013-12-04 10:38:00,
2013-12-04 03:43:00,2.7,-1.3,29.92,WNW,303,9.0,12.0,83,0.00,CLR,CLR,0.00,WeatherDisplay:10.34,2013-12-04 10:43:00,
2013-12-04 03:48:00,2.7,-1.3,29.92,NW,311,8.0,10.0,83,0.00,CLR,CLR,0.00,WeatherDisplay:10.34,2013-12-04 10:48:00,
2013-12-04 03:53:00,2.7,-1.3,29.91,WNW,297,8.0,10.0,83,0.00,CLR,CLR,0.00,WeatherDisplay:10.34,2013-12-04 10:53:00,
2013-12-04 03:58:00,2.7,-1.3,29.91,NNW,336,7.0,10.0,83,0.00,CLR,CLR,0.00,WeatherDisplay:10.34,2013-12-04 10:58:00,
2013-12-04 04:03:00,2.8,-1.2,29.91,WNW,296,6.0,8.0,83,0.00,CLR,CLR,0.00,WeatherDisplay:10.34,2013-12-04 11:03:00,
2013-12-04 04:08:00,2.8,-1.2,29.91,NW,325,8.0,9.0,83,0.00,CLR,CLR,0.00,WeatherDisplay:10.34,2013-12-04 11:08:00,
2013-12-04 04:13:00,2.9,-1.1,29.92,WNW,299,10.0,13.0,83,0.00,CLR,CLR,0.00,WeatherDisplay:10.34,2013-12-04 11:13:00,
2013-12-04 04:18:00,3.0,-1.0,29.92,NW,317,9.0,9.0,83,0.00,CLR,CLR,0.00,WeatherDisplay:10.34,2013-12-04 11:18:00,
2013-12-04 04:23:00,3.0,-1.0,29.93,NNW,336,5.0,5.0,83,0.00,CLR,CLR,0.00,WeatherDisplay:10.34,2013-12-04 11:23:00,
2013-12-04 04:28:00,3.2,-0.8,29.93,NNW,344,10.0,12.0,83,0.00,CLR,CLR,0.00,WeatherDisplay:10.34,2013-12-04 11:28:00,
2013-12-04 04:33:00,3.2,-0.8,29.93,North,355,9.0,12.0,83,0.00,CLR,CLR,0.00,WeatherDisplay:10.34,2013-12-04 11:33:00,
2013-12-04 04:38:00,3.2,-0.8,29.93,NW,322,8.0,8.0,83,0.00,CLR,CLR,0.00,WeatherDisplay:10.34,2013-12-04 11:38:00,
2013-12-04 04:43:00,3.1,-0.9,29.93,NW,324,7.0,9.0,83,0.00,CLR,CLR,0.00,WeatherDisplay:10.34,2013-12-04 11:43:00,
2013-12-04 04:48:00,3.1,-0.9,29.93,WNW,294,13.0,13.0,83,0.00,CLR,CLR,0.00,WeatherDisplay:10.34,2013-12-04 11:48:00,
2013-12-04 04:53:00,3.1,-0.9,29.93,NW,326,10.0,12.0,83,0.00,CLR,CLR,0.00,WeatherDisplay:10.34,2013-12-04 11:53:00,
2013-12-04 04:58:00,3.1,-0.9,29.93,West,278,8.0,10.0,83,0.00,CLR,CLR,0.00,WeatherDisplay:10.34,2013-12-04 11:58:00,
2013-12-04 05:03:00,3.1,-0.9,29.93,WNW,286,3.0,3.0,83,0.00,CLR,CLR,0.00,WeatherDisplay:10.34,2013-12-04 12:03:00,
2013-12-04 05:08:00,3.2,-0.8,29.94,NNW,342,7.0,10.0,83,0.00,CLR,CLR,0.00,WeatherDisplay:10.34,2013-12-04 12:08:00,
2013-12-04 05:13:00,3.1,-0.9,29.94,WNW,302,8.0,12.0,83,0.00,CLR,CLR,0.00,WeatherDisplay:10.34,2013-12-04 12:13:00,
2013-12-04 05:18:00,3.1,-0.9,29.94,NNW,348,9.0,10.0,83,0.00,CLR,CLR,0.00,WeatherDisplay:10.34,2013-12-04 12:18:00,
2013-12-04 05:24:00,3.1,-0.9,29.94,NW,307,3.0,7.0,83,0.00,CLR,CLR,0.00,WeatherDisplay:10.34,2013-12-04 12:24:00,
2013-12-04 05:29:00,3.2,-0.8,29.94,WNW,300,5.0,8.0,83,0.00,CLR,CLR,0.00,WeatherDisplay:10.34,2013-12-04 12:29:00,
2013-12-04 05:34:00,3.1,-0.9,29.94,NNW,336,5.0,5.0,83,0.00,CLR,CLR,0.00,WeatherDisplay:10.34,2013-12-04 12:34:00,
2013-12-04 05:39:00,3.1,-0.9,29.94,WNW,302,5.0,5.0,83,0.00,CLR,CLR,0.00,WeatherDisplay:10.34,2013-12-04 12:39:00,
2013-12-04 05:44:00,3.0,-1.0,29.94,WNW,283,7.0,9.0,83,0.00,CLR,CLR,0.00,WeatherDisplay:10.34,2013-12-04 12:44:00,
2013-12-04 05:49:00,2.9,-1.1,29.94,WNW,284,6.0,7.0,83,0.00,CLR,CLR,0.00,WeatherDisplay:10.34,2013-12-04 12:49:00,
2013-12-04 05:54:00,2.9,-1.1,29.94,NW,308,4.0,4.0,83,0.00,CLR,CLR,0.00,WeatherDisplay:10.34,2013-12-04 12:54:00,
2013-12-04 05:59:00,2.9,-1.1,29.94,NW,319,5.0,5.0,83,0.00,CLR,CLR,0.00,WeatherDisplay:10.34,2013-12-04 12:59:00,
2013-12-04 06:04:00,2.8,-1.2,29.94,NW,315,2.0,2.0,83,0.00,CLR,CLR,0.00,WeatherDisplay:10.34,2013-12-04 13:04:00,
2013-12-04 06:09:00,2.8,-1.2,29.94,NW,326,5.0,7.0,83,0.00,CLR,CLR,0.00,WeatherDisplay:10.34,2013-12-04 13:09:00,
2013-12-04 06:14:00,2.8,-1.2,29.94,NNW,334,7.0,9.0,83,0.00,CLR,CLR,0.00,WeatherDisplay:10.34,2013-12-04 13:14:00,
2013-12-04 06:19:00,2.8,-1.2,29.94,NW,311,5.0,7.0,83,0.00,CLR,CLR,0.00,WeatherDisplay:10.34,2013-12-04 13:19:00,
2013-12-04 06:24:00,2.8,-1.2,29.95,NW,322,4.0,4.0,83,0.00,CLR,CLR,0.00,WeatherDisplay:10.34,2013-12-04 13:24:00,
2013-12-04 06:29:00,2.8,-1.2,29.95,NNW,337,10.0,10.0,83,0.00,CLR,CLR,0.00,WeatherDisplay:10.34,2013-12-04 13:29:00,
2013-12-04 06:34:00,2.8,-1.2,29.95,NNW,338,2.0,3.0,83,0.00,CLR,CLR,0.00,WeatherDisplay:10.34,2013-12-04 13:34:00,
2013-12-04 06:39:00,2.7,-1.5,29.95,NW,314,7.0,7.0,82,0.00,CLR,CLR,0.00,WeatherDisplay:10.34,2013-12-04 13:39:00,
2013-12-04 06:44:00,2.7,-1.5,29.96,WNW,303,8.0,9.0,82,0.00,CLR,CLR,0.00,WeatherDisplay:10.34,2013-12-04 13:44:00,
2013-12-04 06:49:00,2.5,-1.7,29.96,NNW,327,8.0,9.0,82,0.00,CLR,CLR,0.00,WeatherDisplay:10.34,2013-12-04 13:49:00,
2013-12-04 06:54:00,2.4,-1.6,29.96,WNW,302,7.0,10.0,83,0.00,CLR,CLR,0.00,WeatherDisplay:10.34,2013-12-04 13:54:00,
2013-12-04 06:59:00,2.4,-1.6,29.96,NW,312,7.0,7.0,83,0.00,CLR,CLR,0.00,WeatherDisplay:10.34,2013-12-04 13:59:00,
2013-12-04 07:04:00,2.4,-1.6,29.96,NW,316,5.0,8.0,83,0.00,OVC,OVC,0.00,WeatherDisplay:10.34,2013-12-04 14:04:00,
2013-12-04 07:09:00,2.4,-1.6,29.96,NW,317,5.0,8.0,83,0.00,OVC,OVC,0.00,WeatherDisplay:10.34,2013-12-04 14:09:00,
2013-12-04 07:14:00,2.4,-1.6,29.97,WNW,303,9.0,13.0,83,0.00,OVC,OVC,0.00,WeatherDisplay:10.34,2013-12-04 14:14:00,
2013-12-04 07:19:00,2.4,-1.6,29.97,NNW,337,8.0,10.0,83,0.00,OVC,OVC,0.00,WeatherDisplay:10.34,2013-12-04 14:19:00,
2013-12-04 07:24:00,2.4,-1.6,29.97,West,271,6.0,8.0,83,0.00,OVC,OVC,0.00,WeatherDisplay:10.34,2013-12-04 14:24:00,
2013-12-04 07:29:00,2.4,-1.6,29.97,NW,314,4.0,5.0,83,0.00,OVC,OVC,0.00,WeatherDisplay:10.34,2013-12-04 14:29:00,
2013-12-04 07:34:00,2.6,-1.4,29.97,WNW,299,9.0,9.0,83,0.00,OVC,OVC,0.00,WeatherDisplay:10.34,2013-12-04 14:34:00,
2013-12-04 07:39:00,2.5,-1.5,29.97,NW,313,9.0,10.0,83,0.00,OVC,OVC,0.00,WeatherDisplay:10.34,2013-12-04 14:39:00,
2013-12-04 07:44:00,2.4,-1.6,29.97,NW,319,8.0,8.0,83,0.00,OVC,OVC,0.00,WeatherDisplay:10.34,2013-12-04 14:44:00,
2013-12-04 07:49:00,2.4,-1.6,29.97,NNW,332,10.0,14.0,83,0.00,OVC,OVC,0.00,WeatherDisplay:10.34,2013-12-04 14:49:00,
2013-12-04 07:54:00,2.3,-1.7,29.97,WNW,290,11.0,14.0,83,0.00,OVC,OVC,0.00,WeatherDisplay:10.34,2013-12-04 14:54:00,
2013-12-04 07:59:00,2.3,-1.7,29.97,WNW,303,6.0,8.0,83,0.00,OVC,OVC,0.00,WeatherDisplay:10.34,2013-12-04 14:59:00,
2013-12-04 08:04:00,2.4,-1.6,29.97,West,281,3.0,7.0,83,0.00,OVC,OVC,0.00,WeatherDisplay:10.34,2013-12-04 15:04:00,
2013-12-04 08:09:00,2.4,-1.6,29.97,West,260,5.0,7.0,83,0.00,OVC,OVC,0.00,WeatherDisplay:10.34,2013-12-04 15:09:00,
2013-12-04 08:14:00,2.3,-1.7,29.97,West,276,10.0,12.0,83,0.00,CLR,CLR,0.00,WeatherDisplay:10.34,2013-12-04 15:14:00,
2013-12-04 08:19:00,2.2,-1.8,29.97,WNW,283,10.0,10.0,83,0.00,CLR,CLR,0.00,WeatherDisplay:10.34,2013-12-04 15:19:00,
2013-12-04 08:24:00,2.2,-1.8,29.98,NW,319,8.0,9.0,83,0.00,CLR,CLR,0.00,WeatherDisplay:10.34,2013-12-04 15:24:00,
2013-12-04 08:29:00,2.3,-1.7,29.98,West,281,7.0,8.0,83,0.00,CLR,CLR,0.00,WeatherDisplay:10.34,2013-12-04 15:29:00,
2013-12-04 08:34:00,2.3,-1.7,29.98,WNW,296,6.0,6.0,83,0.00,CLR,CLR,0.00,WeatherDisplay:10.34,2013-12-04 15:34:00,
2013-12-04 08:39:00,2.3,-1.7,29.98,WNW,288,6.0,7.0,83,0.00,CLR,CLR,0.00,WeatherDisplay:10.34,2013-12-04 15:39:00,
2013-12-04 08:44:00,2.4,-1.6,29.98,WNW,285,10.0,14.0,83,0.00,FEW,FEW,0.00,WeatherDisplay:10.34,2013-12-04 15:44:00,
2013-12-04 08:49:00,2.4,-1.6,29.98,WNW,282,7.0,15.0,83,0.00,CLR,CLR,0.00,WeatherDisplay:10.34,2013-12-04 15:49:00,
2013-12-04 08:54:00,2.5,-1.5,29.98,WNW,285,9.0,10.0,83,0.00,CLR,CLR,0.00,WeatherDisplay:10.34,2013-12-04 15:54:00,
2013-12-04 08:59:00,2.5,-1.5,29.98,West,276,11.0,12.0,83,0.00,CLR,CLR,0.00,WeatherDisplay:10.34,2013-12-04 15:59:00,
2013-12-04 09:04:00,2.5,-1.5,29.98,West,279,11.0,11.0,83,0.00,FEW,FEW,0.00,WeatherDisplay:10.34,2013-12-04 16:04:00,
2013-12-04 09:09:00,2.4,-1.6,29.98,West,273,9.0,12.0,83,0.00,FEW,FEW,0.00,WeatherDisplay:10.34,2013-12-04 16:09:00,
2013-12-04 09:14:00,2.4,-1.6,29.98,West,281,15.0,21.0,83,0.00,FEW,FEW,0.00,WeatherDisplay:10.34,2013-12-04 16:14:00,
2013-12-04 09:19:00,2.3,-1.7,29.98,WSW,253,9.0,13.0,83,0.00,FEW,FEW,0.00,WeatherDisplay:10.34,2013-12-04 16:19:00,
2013-12-04 09:24:00,2.5,-1.5,29.98,NNW,341,9.0,9.0,83,0.00,FEW,FEW,0.00,WeatherDisplay:10.34,2013-12-04 16:24:00,
2013-12-04 09:29:00,2.3,-1.7,29.98,NW,310,11.0,12.0,83,0.00,FEW,FEW,0.00,WeatherDisplay:10.34,2013-12-04 16:29:00,
2013-12-04 09:34:00,2.3,-1.7,29.99,WNW,300,15.0,16.0,83,0.00,SCT,SCT,0.00,WeatherDisplay:10.34,2013-12-04 16:34:00,
2013-12-04 09:39:00,2.1,-1.9,29.99,NW,319,11.0,21.0,83,0.00,SCT,SCT,0.00,WeatherDisplay:10.34,2013-12-04 16:39:00,
2013-12-04 09:44:00,2.2,-1.8,29.99,WNW,286,14.0,21.0,83,0.00,SCT,SCT,0.00,WeatherDisplay:10.34,2013-12-04 16:44:00,
2013-12-04 09:49:00,2.2,-1.8,29.99,WNW,302,9.0,12.0,83,0.00,SCT,SCT,0.00,WeatherDisplay:10.34,2013-12-04 16:49:00,
2013-12-04 09:54:00,2.3,-1.7,29.99,NNW,331,9.0,12.0,83,0.00,FEW,FEW,0.00,WeatherDisplay:10.34,2013-12-04 16:54:00,
2013-12-04 09:59:00,2.4,-1.6,29.99,WNW,303,8.0,12.0,83,0.00,CLR,CLR,0.00,WeatherDisplay:10.34,2013-12-04 16:59:00,
2013-12-04 10:04:00,2.6,-1.4,29.99,WSW,250,6.0,7.0,83,0.00,CLR,CLR,0.00,WeatherDisplay:10.34,2013-12-04 17:04:00,
2013-12-04 10:09:00,2.8,-1.2,29.99,West,279,10.0,10.0,83,0.00,CLR,CLR,0.00,WeatherDisplay:10.34,2013-12-04 17:09:00,
2013-12-04 10:14:00,3.0,-1.0,29.99,WNW,298,6.0,10.0,83,0.00,CLR,CLR,0.00,WeatherDisplay:10.34,2013-12-04 17:14:00,
2013-12-04 10:19:00,3.2,-0.8,30.00,NNW,331,8.0,13.0,83,0.00,CLR,CLR,0.00,WeatherDisplay:10.34,2013-12-04 17:19:00,
2013-12-04 10:24:00,3.3,-0.7,30.00,WNW,300,8.0,10.0,83,0.00,CLR,CLR,0.00,WeatherDisplay:10.34,2013-12-04 17:24:00,
2013-12-04 10:29:00,3.3,-0.7,30.00,NNW,337,7.0,9.0,83,0.00,CLR,CLR,0.00,WeatherDisplay:10.34,2013-12-04 17:29:00,
2013-12-04 10:34:00,3.4,-0.6,30.00,NW,307,7.0,9.0,83,0.00,CLR,CLR,0.00,WeatherDisplay:10.34,2013-12-04 17:34:00,
2013-12-04 10:39:00,3.7,-0.3,30.00,NNW,336,7.0,9.0,83,0.00,CLR,CLR,0.00,WeatherDisplay:10.34,2013-12-04 17:39:00,
2013-12-04 10:44:00,3.6,-0.7,29.99,WNW,287,8.0,12.0,82,0.00,CLR,CLR,0.00,WeatherDisplay:10.34,2013-12-04 17:44:00,
2013-12-04 10:49:00,3.5,-0.8,29.99,NNW,336,8.0,12.0,82,0.00,CLR,CLR,0.00,WeatherDisplay:10.34,2013-12-04 17:49:00,
2013-12-04 10:54:00,3.6,-0.4,29.99,West,281,7.0,12.0,83,0.00,FEW,FEW,0.00,WeatherDisplay:10.34,2013-12-04 17:54:00,
2013-12-04 10:59:00,3.6,-0.7,29.99,NW,313,9.0,12.0,82,0.00,FEW,FEW,0.00,WeatherDisplay:10.34,2013-12-04 17:59:00,
2013-12-04 11:04:00,3.5,-0.8,29.99,WNW,302,8.0,8.0,82,0.00,FEW,FEW,0.00,WeatherDisplay:10.34,2013-12-04 18:04:00,
2013-12-04 11:09:00,3.3,-1.0,29.99,NW,312,10.0,13.0,82,0.00,FEW,FEW,0.00,WeatherDisplay:10.34,2013-12-04 18:09:00,
2013-12-04 11:14:00,3.3,-1.0,29.98,WNW,295,7.0,8.0,82,0.00,FEW,FEW,0.00,WeatherDisplay:10.34,2013-12-04 18:14:00,
2013-12-04 11:19:00,3.4,-0.9,29.98,NNW,341,9.0,13.0,82,0.00,FEW,FEW,0.00,WeatherDisplay:10.34,2013-12-04 18:19:00,
2013-12-04 11:24:00,3.4,-0.9,29.98,WNW,296,7.0,8.0,82,0.00,FEW,FEW,0.00,WeatherDisplay:10.34,2013-12-04 18:24:00,
2013-12-04 11:29:00,3.5,-0.8,29.98,NNW,329,4.0,7.0,82,0.00,FEW,FEW,0.00,WeatherDisplay:10.34,2013-12-04 18:29:00,
2013-12-04 11:34:00,3.8,-0.5,29.98,North,11,4.0,7.0,82,0.00,FEW,FEW,0.00,WeatherDisplay:10.34,2013-12-04 18:34:00,
2013-12-04 11:39:00,4.0,-0.3,29.98,WNW,302,5.0,5.0,82,0.00,CLR,CLR,0.00,WeatherDisplay:10.34,2013-12-04 18:39:00,
2013-12-04 11:44:00,4.0,-0.3,29.98,WNW,288,7.0,7.0,82,0.00,FEW,FEW,0.00,WeatherDisplay:10.34,2013-12-04 18:44:00,
2013-12-04 11:49:00,4.1,-0.2,29.98,NW,309,5.0,5.0,82,0.00,FEW,FEW,0.00,WeatherDisplay:10.34,2013-12-04 18:49:00,
2013-12-04 11:54:00,4.0,-0.3,29.98,WNW,300,6.0,7.0,82,0.00,FEW,FEW,0.00,WeatherDisplay:10.34,2013-12-04 18:54:00,
2013-12-04 11:59:00,4.1,-0.2,29.98,NW,313,5.0,7.0,82,0.00,FEW,FEW,0.00,WeatherDisplay:10.34,2013-12-04 18:59:00,
2013-12-04 12:04:00,4.3,0.0,29.98,WNW,283,3.0,7.0,82,0.00,FEW,FEW,0.00,WeatherDisplay:10.34,2013-12-04 19:04:00,
2013-12-04 12:09:00,4.4,0.1,29.98,West,273,3.0,5.0,82,0.00,FEW,FEW,0.00,WeatherDisplay:10.34,2013-12-04 19:09:00,
2013-12-04 12:14:00,4.5,0.2,29.98,NW,306,4.0,7.0,82,0.00,FEW,FEW,0.00,WeatherDisplay:10.34,2013-12-04 19:14:00,
2013-12-04 12:19:00,4.5,0.2,29.98,WNW,303,5.0,8.0,82,0.00,FEW,FEW,0.00,WeatherDisplay:10.34,2013-12-04 19:19:00,
2013-12-04 12:24:00,4.4,-0.1,29.98,NW,322,5.0,8.0,81,0.00,FEW,FEW,0.00,WeatherDisplay:10.34,2013-12-04 19:24:00,
2013-12-04 12:29:00,4.5,0.2,29.98,West,281,7.0,9.0,82,0.00,FEW,FEW,0.00,WeatherDisplay:10.34,2013-12-04 19:29:00,
2013-12-04 12:34:00,4.6,0.3,29.98,NNW,334,4.0,5.0,82,0.00,FEW,FEW,0.00,WeatherDisplay:10.34,2013-12-04 19:34:00,
2013-12-04 12:39:00,4.9,0.6,29.98,WNW,294,5.0,8.0,82,0.00,CLR,CLR,0.00,WeatherDisplay:10.34,2013-12-04 19:39:00,
2013-12-04 12:44:00,4.9,0.3,29.97,NNW,329,5.0,7.0,81,0.00,FEW,FEW,0.00,WeatherDisplay:10.34,2013-12-04 19:44:00,
2013-12-04 12:49:00,4.9,0.3,29.97,NW,307,5.0,7.0,81,0.00,FEW,FEW,0.00,WeatherDisplay:10.34,2013-12-04 19:49:00,
2013-12-04 12:54:00,5.0,0.4,29.97,WNW,292,5.0,8.0,81,0.00,CLR,CLR,0.00,WeatherDisplay:10.34,2013-12-04 19:54:00,
2013-12-04 12:59:00,5.0,0.4,29.97,WNW,284,9.0,9.0,81,0.00,CLR,CLR,0.00,WeatherDisplay:10.34,2013-12-04 19:59:00,
2013-12-04 13:04:00,5.1,0.8,29.97,WSW,257,3.0,7.0,82,0.00,CLR,CLR,0.00,WeatherDisplay:10.34,2013-12-04 20:04:00,
2013-12-04 13:09:00,5.1,0.5,29.97,WNW,286,8.0,8.0,81,0.00,CLR,CLR,0.00,WeatherDisplay:10.34,2013-12-04 20:09:00,
2013-12-04 13:14:00,5.3,0.7,29.97,WNW,303,8.0,9.0,81,0.00,CLR,CLR,0.00,WeatherDisplay:10.34,2013-12-04 20:14:00,
2013-12-04 13:19:00,5.6,1.3,29.97,West,272,8.0,8.0,82,0.00,CLR,CLR,0.00,WeatherDisplay:10.34,2013-12-04 20:19:00,
2013-12-04 13:24:00,5.6,1.0,29.97,WNW,302,2.0,5.0,81,0.00,CLR,CLR,0.00,WeatherDisplay:10.34,2013-12-04 20:24:00,
2013-12-04 13:29:00,5.7,1.1,29.97,West,274,11.0,14.0,81,0.00,CLR,CLR,0.00,WeatherDisplay:10.34,2013-12-04 20:29:00,
2013-12-04 13:34:00,5.4,0.8,29.96,West,277,13.0,14.0,81,0.00,CLR,CLR,0.00,WeatherDisplay:10.34,2013-12-04 20:34:00,
2013-12-04 13:39:00,5.0,0.4,29.96,NW,313,9.0,10.0,81,0.00,CLR,CLR,0.00,WeatherDisplay:10.34,2013-12-04 20:39:00,
2013-12-04 13:44:00,4.9,0.3,29.97,WSW,258,8.0,9.0,81,0.00,CLR,CLR,0.00,WeatherDisplay:10.34,2013-12-04 20:44:00,
2013-12-04 13:49:00,4.8,0.2,29.97,West,264,6.0,8.0,81,0.00,CLR,CLR,0.00,WeatherDisplay:10.34,2013-12-04 20:49:00,
2013-12-04 13:54:00,4.8,0.2,29.97,WNW,291,4.0,4.0,81,0.00,CLR,CLR,0.00,WeatherDisplay:10.34,2013-12-04 20:54:00,
2013-12-04 13:59:00,5.1,0.8,29.97,West,267,8.0,9.0,82,0.00,CLR,CLR,0.00,WeatherDisplay:10.34,2013-12-04 20:59:00,
2013-12-04 14:04:00,5.3,1.0,29.97,West,262,8.0,12.0,82,0.00,CLR,CLR,0.00,WeatherDisplay:10.34,2013-12-04 21:04:00,
2013-12-04 14:09:00,5.3,0.7,29.97,WSW,255,7.0,10.0,81,0.00,CLR,CLR,0.00,WeatherDisplay:10.34,2013-12-04 21:09:00,
2013-12-04 14:14:00,5.0,0.4,29.97,WNW,298,8.0,10.0,81,0.00,CLR,CLR,0.00,WeatherDisplay:10.34,2013-12-04 21:14:00,
2013-12-04 14:19:00,5.0,0.4,29.97,NW,318,7.0,7.0,81,0.00,CLR,CLR,0.00,WeatherDisplay:10.34,2013-12-04 21:19:00,
2013-12-04 14:24:00,5.2,0.6,29.97,West,273,7.0,8.0,81,0.00,CLR,CLR,0.00,WeatherDisplay:10.34,2013-12-04 21:24:00,
2013-12-04 14:29:00,4.8,0.0,29.97,NW,307,6.0,7.0,80,0.00,SCT,SCT,0.00,WeatherDisplay:10.34,2013-12-04 21:29:00,
2013-12-04 14:34:00,4.7,0.2,29.97,WNW,286,6.0,8.0,81,0.00,CLR,CLR,0.00,WeatherDisplay:10.34,2013-12-04 21:34:00,
2013-12-04 14:39:00,4.9,0.3,29.97,NNW,340,6.0,7.0,81,0.00,CLR,CLR,0.00,WeatherDisplay:10.34,2013-12-04 21:39:00,
2013-12-04 14:44:00,4.7,0.2,29.97,NW,314,9.0,9.0,81,0.00,CLR,CLR,0.00,WeatherDisplay:10.34,2013-12-04 21:44:00,
2013-12-04 14:49:00,4.5,-0.3,29.97,WNW,294,10.0,10.0,80,0.00,CLR,CLR,0.00,WeatherDisplay:10.34,2013-12-04 21:49:00,
2013-12-04 14:54:00,4.2,-0.6,29.98,West,277,7.0,9.0,80,0.00,CLR,CLR,0.00,WeatherDisplay:10.34,2013-12-04 21:54:00,
2013-12-04 14:59:00,4.1,-0.7,29.98,NNW,340,7.0,7.0,80,0.00,CLR,CLR,0.00,WeatherDisplay:10.34,2013-12-04 21:59:00,
2013-12-04 15:04:00,3.8,-1.0,29.98,NW,309,9.0,10.0,80,0.00,CLR,CLR,0.00,WeatherDisplay:10.34,2013-12-04 22:04:00,
2013-12-04 15:09:00,3.7,-1.1,29.98,WSW,253,6.0,8.0,80,0.00,CLR,CLR,0.00,WeatherDisplay:10.34,2013-12-04 22:09:00,
2013-12-04 15:14:00,3.5,-1.3,29.98,WNW,288,8.0,9.0,80,0.00,SCT,SCT,0.00,WeatherDisplay:10.34,2013-12-04 22:14:00,
2013-12-04 15:19:00,3.0,-1.8,29.98,WNW,288,7.0,9.0,80,0.00,SCT,SCT,0.00,WeatherDisplay:10.34,2013-12-04 22:19:00,
2013-12-04 15:24:00,2.7,-2.1,29.98,West,274,8.0,9.0,80,0.00,BKN,BKN,0.00,WeatherDisplay:10.34,2013-12-04 22:24:00,
2013-12-04 15:29:00,2.4,-2.1,29.98,WNW,294,7.0,7.0,81,0.00,OVC,OVC,0.00,WeatherDisplay:10.34,2013-12-04 22:29:00,
2013-12-04 15:34:00,2.2,-2.3,29.99,WNW,288,3.0,5.0,81,0.00,BKN,BKN,0.00,WeatherDisplay:10.34,2013-12-04 22:34:00,
2013-12-04 15:39:00,2.0,-2.5,29.99,WNW,298,4.0,0.0,81,0.00,OVC,OVC,0.00,WeatherDisplay:10.34,2013-12-04 22:39:00,
2013-12-04 15:44:00,2.0,-2.5,29.99,WNW,294,4.0,7.0,81,0.00,OVC,OVC,0.00,WeatherDisplay:10.34,2013-12-04 22:44:00,
2013-12-04 15:49:00,1.9,-2.6,30.00,West,280,6.0,9.0,81,0.00,OVC,OVC,0.00,WeatherDisplay:10.34,2013-12-04 22:49:00,
2013-12-04 15:55:00,1.8,-2.4,29.99,West,269,8.0,8.0,82,0.00,BKN,BKN,0.00,WeatherDisplay:10.34,2013-12-04 22:55:00,
2013-12-04 16:00:00,1.8,-2.7,29.99,West,272,7.0,10.0,81,0.00,BKN,BKN,0.00,WeatherDisplay:10.34,2013-12-04 23:00:00,
2013-12-04 16:05:00,1.7,-2.8,29.99,West,261,9.0,10.0,81,0.00,OVC,OVC,0.00,WeatherDisplay:10.34,2013-12-04 23:05:00,
2013-12-04 16:10:00,1.6,-2.6,29.99,WSW,245,6.0,9.0,82,0.00,OVC,OVC,0.00,WeatherDisplay:10.34,2013-12-04 23:10:00,
2013-12-04 16:15:00,1.5,-2.7,29.99,WSW,253,8.0,8.0,82,0.00,OVC,OVC,0.00,WeatherDisplay:10.34,2013-12-04 23:15:00,
2013-12-04 16:20:00,1.4,-2.8,30.00,West,263,9.0,9.0,82,0.00,OVC,OVC,0.00,WeatherDisplay:10.34,2013-12-04 23:20:00,
2013-12-04 16:25:00,1.3,-2.9,30.00,WNW,284,9.0,9.0,82,0.00,OVC,OVC,0.00,WeatherDisplay:10.34,2013-12-04 23:25:00,
2013-12-04 16:30:00,1.2,-3.0,29.99,West,267,12.0,12.0,82,0.00,OVC,OVC,0.00,WeatherDisplay:10.34,2013-12-04 23:30:00,
2013-12-04 16:35:00,1.1,-3.1,29.99,West,259,7.0,8.0,82,0.00,OVC,OVC,0.00,WeatherDisplay:10.34,2013-12-04 23:35:00,
2013-12-04 16:40:00,1.0,-3.2,29.99,WNW,302,5.0,5.0,82,0.00,OVC,OVC,0.00,WeatherDisplay:10.34,2013-12-04 23:40:00,
2013-12-04 16:45:00,0.9,-3.3,29.99,WSW,246,4.0,5.0,82,0.00,OVC,OVC,0.00,WeatherDisplay:10.34,2013-12-04 23:45:00,
2013-12-04 16:50:00,0.8,-3.4,30.00,WSW,254,2.0,2.0,82,0.00,OVC,OVC,0.00,WeatherDisplay:10.34,2013-12-04 23:50:00,
2013-12-04 16:55:00,0.6,-3.6,30.00,West,259,2.0,3.0,82,0.00,OVC,OVC,0.00,WeatherDisplay:10.34,2013-12-04 23:55:00,
2013-12-04 17:00:00,0.5,-3.7,30.00,WSW,250,2.0,2.0,82,0.00,CLR,CLR,0.00,WeatherDisplay:10.34,2013-12-05 00:00:00,
2013-12-04 17:05:00,0.4,-3.8,30.00,West,263,4.0,4.0,82,0.00,CLR,CLR,0.00,WeatherDisplay:10.34,2013-12-05 00:05:00,
2013-12-04 17:10:00,0.4,-3.8,30.00,West,259,2.0,3.0,82,0.00,CLR,CLR,0.00,WeatherDisplay:10.34,2013-12-05 00:10:00,
2013-12-04 17:15:00,0.2,-4.0,30.00,WSW,253,2.0,2.0,82,0.00,CLR,CLR,0.00,WeatherDisplay:10.34,2013-12-05 00:15:00,
2013-12-04 17:21:00,0.2,-4.0,30.01,WSW,255,4.0,4.0,82,0.00,CLR,CLR,0.00,WeatherDisplay:10.34,2013-12-05 00:21:00,
2013-12-04 17:26:00,0.1,-4.1,30.01,WSW,254,3.0,3.0,82,0.00,CLR,CLR,0.00,WeatherDisplay:10.34,2013-12-05 00:26:00,
2013-12-04 17:31:00,0.0,-4.2,30.01,WSW,245,4.0,5.0,82,0.00,CLR,CLR,0.00,WeatherDisplay:10.34,2013-12-05 00:31:00,
2013-12-04 17:36:00,0.0,-4.2,30.01,WSW,255,4.0,5.0,82,0.00,CLR,CLR,0.00,WeatherDisplay:10.34,2013-12-05 00:36:00,
2013-12-04 17:41:00,0.0,-4.2,30.01,WSW,255,2.0,2.0,82,0.00,CLR,CLR,0.00,WeatherDisplay:10.34,2013-12-05 00:41:00,
2013-12-04 17:46:00,-0.1,-4.3,30.01,WSW,256,0.0,1.0,82,0.00,CLR,CLR,0.00,WeatherDisplay:10.34,2013-12-05 00:46:00,
2013-12-04 17:51:00,-0.2,-4.4,30.01,WSW,256,0.0,0.0,82,0.00,CLR,CLR,0.00,WeatherDisplay:10.34,2013-12-05 00:51:00,
2013-12-04 17:56:00,-0.3,-4.5,30.01,WSW,256,0.0,1.0,82,0.00,CLR,CLR,0.00,WeatherDisplay:10.34,2013-12-05 00:56:00,
2013-12-04 18:01:00,-0.4,-4.6,30.01,WSW,254,0.0,0.0,82,0.00,CLR,CLR,0.00,WeatherDisplay:10.34,2013-12-05 01:01:00,
2013-12-04 18:06:00,-0.6,-4.8,30.01,WSW,254,0.0,0.0,82,0.00,CLR,CLR,0.00,WeatherDisplay:10.34,2013-12-05 01:06:00,
2013-12-04 18:11:00,-0.8,-5.0,30.01,WSW,254,0.0,0.0,82,0.00,CLR,CLR,0.00,WeatherDisplay:10.34,2013-12-05 01:11:00,
2013-12-04 18:16:00,-0.9,-5.1,30.01,WSW,254,0.0,0.0,82,0.00,CLR,CLR,0.00,WeatherDisplay:10.34,2013-12-05 01:16:00,
2013-12-04 18:21:00,-1.1,-5.3,30.02,WSW,254,0.0,0.0,82,0.00,CLR,CLR,0.00,WeatherDisplay:10.34,2013-12-05 01:21:00,
2013-12-04 18:26:00,-1.4,-5.6,30.02,WSW,254,0.0,0.0,82,0.00,CLR,CLR,0.00,WeatherDisplay:10.34,2013-12-05 01:26:00,
2013-12-04 18:31:00,-1.6,-6.0,30.02,WSW,254,0.0,0.0,81,0.00,CLR,CLR,0.00,WeatherDisplay:10.34,2013-12-05 01:31:00,
2013-12-04 18:36:00,-1.8,-6.2,30.01,WSW,254,0.0,0.0,81,0.00,CLR,CLR,0.00,WeatherDisplay:10.34,2013-12-05 01:36:00,
2013-12-04 18:41:00,-1.9,-6.1,30.02,WSW,254,1.0,1.0,82,0.00,CLR,CLR,0.00,WeatherDisplay:10.34,2013-12-05 01:41:00,
2013-12-04 18:46:00,-2.1,-6.2,30.02,WSW,244,3.0,3.0,82,0.00,CLR,CLR,0.00,WeatherDisplay:10.34,2013-12-05 01:46:00,
2013-12-04 18:51:00,-2.2,-6.3,30.02,SW,234,3.0,3.0,82,0.00,CLR,CLR,0.00,WeatherDisplay:10.34,2013-12-05 01:51:00,
2013-12-04 18:56:00,-2.2,-6.3,30.02,SW,234,3.0,3.0,82,0.00,CLR,CLR,0.00,WeatherDisplay:10.34,2013-12-05 01:56:00,
2013-12-04 19:01:00,-2.3,-6.4,30.02,SW,220,4.0,5.0,82,0.00,CLR,CLR,0.00,WeatherDisplay:10.34,2013-12-05 02:01:00,
2013-12-04 19:06:00,-2.3,-6.4,30.01,SW,221,2.0,2.0,82,0.00,CLR,CLR,0.00,WeatherDisplay:10.34,2013-12-05 02:06:00,
2013-12-04 19:11:00,-2.2,-6.3,30.02,SW,221,1.0,1.0,82,0.00,CLR,CLR,0.00,WeatherDisplay:10.34,2013-12-05 02:11:00,
2013-12-04 19:16:00,-2.1,-6.2,30.02,SW,221,0.0,1.0,82,0.00,CLR,CLR,0.00,WeatherDisplay:10.34,2013-12-05 02:16:00,
2013-12-04 19:21:00,-2.0,-6.1,30.02,SW,221,0.0,1.0,82,0.00,CLR,CLR,0.00,WeatherDisplay:10.34,2013-12-05 02:21:00,
2013-12-04 19:26:00,-1.8,-5.7,30.02,SW,221,0.0,1.0,83,0.00,CLR,CLR,0.00,WeatherDisplay:10.34,2013-12-05 02:26:00,
2013-12-04 19:31:00,-1.7,-5.6,30.02,SW,221,3.0,3.0,83,0.00,CLR,CLR,0.00,WeatherDisplay:10.34,2013-12-05 02:31:00,
2013-12-04 19:36:00,-1.4,-5.3,30.02,SW,232,5.0,7.0,83,0.00,CLR,CLR,0.00,WeatherDisplay:10.34,2013-12-05 02:36:00,
2013-12-04 19:41:00,-1.2,-5.1,30.03,SW,232,3.0,3.0,83,0.00,CLR,CLR,0.00,WeatherDisplay:10.34,2013-12-05 02:41:00,
2013-12-04 19:46:00,-0.9,-4.8,30.03,SW,232,3.0,3.0,83,0.00,CLR,CLR,0.00,WeatherDisplay:10.34,2013-12-05 02:46:00,
2013-12-04 19:51:00,-0.7,-4.6,30.03,SW,221,6.0,7.0,83,0.00,CLR,CLR,0.00,WeatherDisplay:10.34,2013-12-05 02:51:00,
2013-12-04 19:56:00,-0.6,-4.5,30.03,SSW,213,6.0,6.0,83,0.00,CLR,CLR,0.00,WeatherDisplay:10.34,2013-12-05 02:56:00,
2013-12-04 20:01:00,-0.4,-4.3,30.03,SW,215,7.0,8.0,83,0.00,CLR,CLR,0.00,WeatherDisplay:10.34,2013-12-05 03:01:00,
2013-12-04 20:06:00,-0.5,-4.4,30.03,SW,223,9.0,9.0,83,0.00,CLR,CLR,0.00,WeatherDisplay:10.34,2013-12-05 03:06:00,
2013-12-04 20:11:00,-0.6,-4.5,30.03,SSW,208,8.0,8.0,83,0.00,CLR,CLR,0.00,WeatherDisplay:10.34,2013-12-05 03:11:00,
2013-12-04 20:16:00,-0.8,-5.0,30.03,SW,219,8.0,9.0,82,0.00,CLR,CLR,0.00,WeatherDisplay:10.34,2013-12-05 03:16:00,
2013-12-04 20:21:00,-0.8,-5.0,30.03,SW,222,3.0,3.0,82,0.00,CLR,CLR,0.00,WeatherDisplay:10.34,2013-12-05 03:21:00,
2013-12-04 20:26:00,-1.1,-5.3,30.03,SW,218,6.0,8.0,82,0.00,CLR,CLR,0.00,WeatherDisplay:10.34,2013-12-05 03:26:00,
2013-12-04 20:31:00,-1.2,-5.4,30.03,SW,216,7.0,7.0,82,0.00,CLR,CLR,0.00,WeatherDisplay:10.34,2013-12-05 03:31:00,
2013-12-04 20:36:00,-1.4,-5.6,30.03,SW,225,5.0,7.0,82,0.00,CLR,CLR,0.00,WeatherDisplay:10.34,2013-12-05 03:36:00,
2013-12-04 20:41:00,-1.6,-5.8,30.03,SSW,213,5.0,5.0,82,0.00,CLR,CLR,0.00,WeatherDisplay:10.34,2013-12-05 03:41:00,
2013-12-04 20:46:00,-1.8,-6.0,30.03,SW,229,7.0,8.0,82,0.00,CLR,CLR,0.00,WeatherDisplay:10.34,2013-12-05 03:46:00,
2013-12-04 20:51:00,-2.1,-6.2,30.03,SW,235,7.0,8.0,82,0.00,CLR,CLR,0.00,WeatherDisplay:10.34,2013-12-05 03:51:00,
2013-12-04 20:56:00,-2.3,-6.4,30.03,WSW,240,4.0,5.0,82,0.00,CLR,CLR,0.00,WeatherDisplay:10.34,2013-12-05 03:56:00,
2013-12-04 21:01:00,-2.5,-6.9,30.03,SW,228,4.0,5.0,81,0.00,CLR,CLR,0.00,WeatherDisplay:10.34,2013-12-05 04:01:00,
2013-12-04 21:06:00,-2.8,-7.2,30.03,WSW,238,5.0,5.0,81,0.00,CLR,CLR,0.00,WeatherDisplay:10.34,2013-12-05 04:06:00,
2013-12-04 21:11:00,-3.1,-7.5,30.02,SW,236,5.0,7.0,81,0.00,CLR,CLR,0.00,WeatherDisplay:10.34,2013-12-05 04:11:00,
2013-12-04 21:16:00,-3.3,-7.7,30.02,WSW,253,6.0,7.0,81,0.00,CLR,CLR,0.00,WeatherDisplay:10.34,2013-12-05 04:16:00,
2013-12-04 21:21:00,-3.5,-7.9,30.03,WSW,238,6.0,7.0,81,0.00,CLR,CLR,0.00,WeatherDisplay:10.34,2013-12-05 04:21:00,
2013-12-04 21:27:00,-3.7,-8.1,30.03,SW,234,5.0,5.0,81,0.00,CLR,CLR,0.00,WeatherDisplay:10.34,2013-12-05 04:27:00,
2013-12-04 21:32:00,-3.8,-8.2,30.03,WSW,240,4.0,4.0,81,0.00,CLR,CLR,0.00,WeatherDisplay:10.34,2013-12-05 04:32:00,
2013-12-04 21:37:00,-4.0,-8.4,30.03,SW,234,5.0,7.0,81,0.00,CLR,CLR,0.00,WeatherDisplay:10.34,2013-12-05 04:37:00,
2013-12-04 21:42:00,-4.1,-8.5,30.03,SW,229,5.0,5.0,81,0.00,CLR,CLR,0.00,WeatherDisplay:10.34,2013-12-05 04:42:00,
2013-12-04 21:47:00,-4.3,-8.7,30.03,SW,234,5.0,5.0,81,0.00,CLR,CLR,0.00,WeatherDisplay:10.34,2013-12-05 04:47:00,
2013-12-04 21:52:00,-4.4,-8.8,30.03,SW,229,5.0,5.0,81,0.00,CLR,CLR,0.00,WeatherDisplay:10.34,2013-12-05 04:52:00,
2013-12-04 21:57:00,-4.5,-8.8,30.03,WSW,250,4.0,7.0,81,0.00,CLR,CLR,0.00,WeatherDisplay:10.34,2013-12-05 04:57:00,
2013-12-04 22:01:00,-4.5,-8.8,30.03,WSW,246,6.0,7.0,81,0.00,CLR,CLR,0.00,WeatherDisplay:10.34,2013-12-05 05:01:00,
2013-12-04 22:02:00,-4.5,-8.8,30.03,SW,232,5.0,5.0,81,0.00,CLR,CLR,0.00,WeatherDisplay:10.34,2013-12-05 05:02:00,
2013-12-04 22:03:00,-4.5,-8.8,30.03,SW,236,5.0,7.0,81,0.00,CLR,CLR,0.00,WeatherDisplay:10.34,2013-12-05 05:03:00,
2013-12-04 22:05:00,-4.5,-8.8,30.03,WSW,237,6.0,7.0,81,0.00,CLR,CLR,0.00,WeatherDisplay:10.34,2013-12-05 05:05:00,
2013-12-04 22:07:00,-4.5,-8.8,30.03,WSW,237,5.0,7.0,81,0.00,CLR,CLR,0.00,WeatherDisplay:10.34,2013-12-05 05:07:00,
2013-12-04 22:12:00,-4.5,-8.8,30.03,WSW,254,6.0,6.0,81,0.00,CLR,CLR,0.00,WeatherDisplay:10.34,2013-12-05 05:12:00,
2013-12-04 22:17:00,-4.4,-8.8,30.03,WSW,252,5.0,5.0,81,0.00,CLR,CLR,0.00,WeatherDisplay:10.34,2013-12-05 05:17:00,
2013-12-04 22:22:00,-4.4,-8.8,30.03,WSW,249,5.0,7.0,81,0.00,CLR,CLR,0.00,WeatherDisplay:10.34,2013-12-05 05:22:00,
2013-12-04 22:27:00,-4.3,-8.7,30.03,WSW,238,6.0,7.0,81,0.00,CLR,CLR,0.00,WeatherDisplay:10.34,2013-12-05 05:27:00,
2013-12-04 22:32:00,-4.2,-8.6,30.03,SW,214,5.0,5.0,81,0.00,CLR,CLR,0.00,WeatherDisplay:10.34,2013-12-05 05:32:00,
2013-12-04 22:37:00,-4.1,-8.5,30.03,WSW,244,5.0,5.0,81,0.00,CLR,CLR,0.00,WeatherDisplay:10.34,2013-12-05 05:37:00,
2013-12-04 22:42:00,-4.0,-8.4,30.03,WSW,245,5.0,5.0,81,0.00,CLR,CLR,0.00,WeatherDisplay:10.34,2013-12-05 05:42:00,
2013-12-04 22:47:00,-3.9,-8.3,30.03,WSW,238,5.0,5.0,81,0.00,CLR,CLR,0.00,WeatherDisplay:10.34,2013-12-05 05:47:00,
2013-12-04 22:52:00,-3.9,-8.3,30.03,WSW,253,6.0,7.0,81,0.00,CLR,CLR,0.00,WeatherDisplay:10.34,2013-12-05 05:52:00,
2013-12-04 22:57:00,-3.9,-8.3,30.03,WSW,240,7.0,7.0,81,0.00,CLR,CLR,0.00,WeatherDisplay:10.34,2013-12-05 05:57:00,
2013-12-04 23:02:00,-3.9,-8.3,30.03,WSW,240,6.0,8.0,81,0.00,CLR,CLR,0.00,WeatherDisplay:10.34,2013-12-05 06:02:00,
2013-12-04 23:07:00,-3.9,-8.3,30.03,WSW,238,4.0,7.0,81,0.00,CLR,CLR,0.00,WeatherDisplay:10.34,2013-12-05 06:07:00,
2013-12-04 23:12:00,-3.9,-8.3,30.03,SW,233,5.0,7.0,81,0.00,CLR,CLR,0.00,WeatherDisplay:10.34,2013-12-05 06:12:00,
2013-12-04 23:17:00,-3.9,-8.3,30.03,WSW,246,5.0,8.0,81,0.00,CLR,CLR,0.00,WeatherDisplay:10.34,2013-12-05 06:17:00,
2013-12-04 23:22:00,-3.8,-8.2,30.03,SW,229,6.0,7.0,81,0.00,CLR,CLR,0.00,WeatherDisplay:10.34,2013-12-05 06:22:00,
2013-12-04 23:27:00,-3.9,-8.3,30.03,SW,227,5.0,7.0,81,0.00,CLR,CLR,0.00,WeatherDisplay:10.34,2013-12-05 06:27:00,
2013-12-04 23:32:00,-3.9,-8.3,30.03,WSW,237,5.0,5.0,81,0.00,CLR,CLR,0.00,WeatherDisplay:10.34,2013-12-05 06:32:00,
2013-12-04 23:37:00,-4.0,-8.4,30.03,WSW,237,6.0,7.0,81,0.00,CLR,CLR,0.00,WeatherDisplay:10.34,2013-12-05 06:37:00,
2013-12-04 23:42:00,-4.0,-8.4,30.03,WSW,239,6.0,7.0,81,0.00,CLR,CLR,0.00,WeatherDisplay:10.34,2013-12-05 06:42:00,
2013-12-04 23:47:00,-3.9,-8.3,30.03,WSW,251,6.0,10.0,81,0.00,CLR,CLR,0.00,WeatherDisplay:10.34,2013-12-05 06:47:00,
2013-12-04 23:52:00,-3.9,-8.3,30.03,WSW,245,6.0,7.0,81,0.00,CLR,CLR,0.00,WeatherDisplay:10.34,2013-12-05 06:52:00,
2013-12-04 23:57:00,-3.8,-8.2,30.02,WSW,244,6.0,7.0,81,0.00,CLR,CLR,0.00,WeatherDisplay:10.34,2013-12-05 06:57:00,